Helicity
14 20 39 25 10 9 -43 -41 1 69 95 -27 31 69 59 50 13 10 37 24 63 25 -16 5 16 42 29 42 25 26 20 18 16 13 11 15 19 24 17 2 6 20 16 13 7 -1 -3 -5 10
45 35 9 15 38 11 -36 -16 17 56 -7 11 15 5 42 49 35 56 105 48 62 29 38 15 19 44 21 40 39 29 26 22 23 18 13 12 21 27 11 -4 2 13 12 12 9 9 -1 -8 5
53 40 -8 -6 16 42 -30 3 30 95 88 80 23 33 12 10 38 9 30 100 69 21 36 17 -0 17 11 45 55 43 29 23 32 19 18 11 14 24 8 2 10 9 4 5 -2 -0 2 -8 -6
-14 -8 28 -62 -0 -32 30 -4 64 85 117 79 84 34 5 20 26 -0 111 115 60 18 -10 2 20 -4 21 47 46 44 32 21 32 24 22 12 5 22 7 -0 -0 -4 -4 -3 7 8 9 2 -8
-72 -31 58 25 -23 85 74 -3 56 51 74 115 79 14 35 61 117 137 104 110 85 49 2 34 23 24 29 41 38 36 22 27 23 24 26 3 7 21 6 4 -2 -1 4 10 17 24 18 8 -2
-77 -48 -17 -17 -36 69 -30 -4 155 165 142 165 117 42 32 126 201 129 78 38 54 65 19 14 24 31 31 36 36 34 23 2 19 13 16 5 15 20 4 3 -1 -1 21 32 30 10 5 -6 -5
21 -68 -48 -70 -91 -19 2 19 54 91 106 94 126 40 63 125 117 95 65 67 25 33 57 32 6 16 36 35 34 22 20 -5 3 5 10 8 14 12 -0 -0 10 17 29 47 37 3 -13 -13 3
10 37 34 81 -8 -56 -15 4 33 78 144 212 125 92 85 158 166 157 140 58 78 33 28 -3 -13 8 45 28 34 26 14 -14 4 2 13 18 18 4 -5 -7 30 36 42 38 34 7 16 46 24
87 35 11 -12 24 10 18 43 118 94 138 137 69 186 227 309 371 292 184 136 65 16 20 -2 -5 2 17 13 16 31 23 1 1 7 8 14 -0 -17 -13 2 45 66 42 35 28 56 73 100 19
118 74 69 75 55 32 -1 14 148 111 149 143 262 287 192 269 351 291 205 117 65 50 33 -0 -13 -13 40 48 53 40 23 8 21 -3 -15 -35 -6 15 6 23 55 73 41 28 29 71 115 110 65
112 4 46 100 89 58 44 59 105 90 60 204 273 218 163 198 180 172 128 98 62 48 42 40 -23 71 15 34 53 51 30 19 19 -3 -9 1 14 55 78 36 12 50 36 8 14 44 70 78 104
87 64 47 72 94 77 45 67 84 80 51 385 288 156 117 89 104 137 109 91 15 -5 11 -33 -47 -13 41 11 46 44 32 34 23 18 20 6 47 91 117 85 41 27 37 34 53 61 22 53 74
46 21 26 40 6 33 105 102 89 83 203 424 272 213 145 93 81 101 62 83 37 2 -23 -27 -48 -10 -1 14 -37 -18 -24 27 13 31 20 71 69 116 141 114 58 2 37 63 78 115 60 4 -6
21 4 48 58 93 80 52 51 78 93 303 366 279 225 203 140 130 107 150 142 75 14 -16 -29 -6 -16 13 -4 -23 -29 -35 -21 9 28 21 43 74 124 155 82 50 44 82 55 57 85 64 -6 130
30 -10 27 71 134 121 49 30 79 194 276 305 297 229 246 176 134 108 174 166 138 86 59 33 -2 16 2 -11 -18 -30 -35 -36 10 34 52 54 76 123 113 47 -12 79 -10 56 8 34 -21 -12 43
-48 -31 65 63 26 50 79 43 83 190 248 244 320 283 289 238 177 85 153 162 139 145 115 46 15 11 -19 -4 -3 -18 -50 -49 -13 30 45 50 53 55 28 44 34 -0 57 57 33 -10 3 6 19
-83 -22 23 53 101 43 116 63 46 206 209 215 293 327 286 252 201 135 149 176 204 180 138 100 55 55 70 50 16 -9 -33 -67 29 30 37 38 41 39 23 50 44 25 57 36 29 43 -21 -14 -13
15 56 71 60 60 83 111 121 37 129 211 135 272 321 301 320 235 193 209 233 196 208 185 164 100 71 60 61 15 -15 58 -46 6 -0 18 43 39 49 23 52 58 53 60 44 8 18 -8 -41 29
131 169 170 70 43 136 2 130 82 141 201 154 234 305 355 328 229 231 265 278 234 203 221 218 187 120 100 82 35 25 3 1 -9 47 51 38 32 42 33 59 51 30 40 41 25 -1 20 11 57
163 189 198 9 -38 139 29 83 21 173 225 221 276 267 334 255 250 282 300 351 301 260 222 226 250 216 143 82 15 6 -21 -17 14 38 45 49 47 41 63 67 72 45 44 27 21 10 13 58 49
125 102 21 6 -55 9 -10 24 -60 -42 123 183 244 285 322 358 350 338 397 415 396 322 247 214 221 220 172 86 -7 71 12 41 11 21 29 26 22 38 59 50 43 35 28 34 20 21 23 52 27
62 97 -9 14 8 -60 21 151 29 -41 40 215 232 228 292 302 303 395 442 491 430 310 260 203 204 205 184 147 63 20 -10 -24 14 29 27 26 10 38 62 34 28 13 25 30 19 28 38 33 39
65 30 12 28 -6 -55 -0 79 133 -51 14 160 211 249 244 267 368 400 524 600 509 322 221 202 182 194 191 179 120 26 -24 -15 64 57 8 -4 48 35 36 25 26 12 13 35 31 26 18 24 41
-0 53 80 67 4 -90 20 68 38 61 131 216 138 198 229 243 362 419 479 512 507 401 301 214 188 170 187 199 153 80 7 -19 52 60 62 43 43 53 28 8 27 33 26 23 25 26 11 16 23
115 108 74 48 29 -56 21 84 261 23 50 226 194 107 237 247 315 378 431 542 549 511 460 326 214 174 199 192 183 117 57 6 16 48 43 40 33 18 2 17 16 35 38 36 33 34 38 30 24
37 111 119 43 67 21 4 29 38 100 30 60 132 157 185 287 280 367 401 480 588 583 518 392 293 192 191 182 162 131 64 10 -14 -14 5 34 24 19 23 24 20 27 51 39 37 38 31 31 22
70 72 30 73 104 102 37 32 30 65 50 -7 22 96 133 295 316 292 359 419 526 598 554 457 300 209 198 148 119 123 76 38 -10 -27 -29 -36 -21 42 32 13 11 40 73 58 57 47 32 37 28
66 33 99 64 59 73 29 87 47 71 94 63 50 39 87 241 310 269 290 349 493 645 575 431 306 236 184 167 134 109 87 37 -9 -25 -32 -34 -48 -30 1 30 33 39 67 68 62 55 39 43 30
59 22 86 87 64 -3 19 9 -34 9 64 61 87 78 61 208 278 263 248 276 421 553 618 444 310 214 158 154 151 126 93 42 20 -21 -39 -39 -24 4 16 28 37 50 72 66 68 62 58 58 36
177 103 89 67 17 17 35 -0 53 13 75 83 82 37 64 129 178 205 220 297 374 528 589 470 333 254 154 130 140 147 113 76 40 -8 -39 -54 -22 26 28 48 60 68 84 77 87 67 59 70 65
Wind_Speed
30 29 25 27 27 27 25 38 41 35 36 35 36 32 34 34 28 27 34 39 38 42 39 34 31 19 3 18 25 33 33 33 35 41 44 42 46 39 38 51 50 48 47 47 48 48 47 44 43
36 35 34 17 11 29 30 36 46 40 45 45 45 39 38 34 34 32 36 43 44 42 33 38 38 10 4 33 32 27 32 31 36 42 36 37 33 35 36 50 47 48 50 50 51 50 48 47 46
35 32 35 28 31 31 33 37 43 41 40 39 39 40 36 34 35 40 35 44 43 38 32 33 41 36 22 27 26 28 26 27 34 33 32 30 25 33 37 10 37 51 53 53 54 51 49 49 48
41 35 35 33 32 31 33 38 39 40 42 42 42 42 37 33 41 36 45 42 42 40 36 27 19 48 17 17 30 27 29 27 29 30 32 25 21 25 24 32 52 54 54 54 53 51 49 48 44
45 42 33 22 40 31 23 26 39 36 40 42 40 40 38 39 38 43 45 42 41 37 39 6 7 15 12 31 29 20 24 24 25 30 28 24 18 21 35 52 52 54 52 50 47 45 42 38 36
49 42 36 37 38 25 35 31 45 39 41 41 42 41 37 37 42 46 45 44 40 41 32 24 22 8 15 22 27 22 24 21 21 30 29 25 24 33 38 50 52 52 48 46 44 44 40 38 36
41 44 42 36 28 30 34 24 40 36 35 34 40 40 38 39 44 46 40 39 40 36 28 17 23 19 16 21 18 24 27 17 20 30 31 27 25 39 39 46 51 50 47 43 40 39 38 37 33
34 42 39 35 34 30 28 20 33 38 42 37 37 34 33 40 42 41 33 34 31 30 30 33 28 18 13 6 13 18 33 19 19 27 36 29 40 36 36 44 50 49 48 43 39 36 38 35 34
29 38 42 38 35 29 27 33 42 41 36 35 22 31 39 39 34 33 26 27 32 36 32 35 32 22 20 10 12 18 22 15 12 40 29 23 38 18 40 44 49 48 47 43 40 38 32 38 31
23 33 35 32 30 32 30 31 29 31 38 37 37 41 41 37 33 37 37 41 35 46 29 54 44 31 12 9 24 13 13 12 18 30 30 21 41 48 47 45 46 47 44 41 37 31 41 39 35
25 29 25 29 32 27 30 29 28 28 27 29 32 40 39 36 37 36 41 44 48 50 56 60 56 6 9 7 14 27 33 12 19 35 46 44 41 33 44 45 43 45 43 40 35 31 33 34 40
29 26 28 32 30 28 25 28 28 26 22 33 37 41 40 39 39 40 44 44 50 52 57 54 55 26 2 19 17 16 18 22 27 40 46 48 44 39 43 47 42 41 41 37 33 32 29 26 29
31 31 30 33 30 25 32 28 27 25 37 42 41 39 39 39 41 41 40 43 48 51 55 57 54 42 29 26 42 49 55 35 24 40 45 31 10 37 42 45 42 33 37 35 33 33 29 22 21
22 27 30 29 36 32 26 25 22 27 38 39 39 39 40 40 41 42 41 44 50 51 54 57 54 54 48 46 50 54 54 55 51 36 45 46 41 41 42 42 44 34 36 31 31 28 24 32 23
34 18 23 30 25 24 25 19 21 34 38 36 35 37 38 39 42 43 43 47 48 51 53 54 51 35 48 50 49 53 55 53 52 41 42 44 36 42 34 22 19 39 27 30 29 24 30 34 20
34 23 24 20 30 22 28 18 25 31 34 33 33 35 35 39 42 42 44 45 49 44 49 51 48 43 44 41 36 49 44 48 59 48 46 45 40 36 24 22 20 23 28 27 22 34 35 32 31
12 31 28 28 30 26 26 19 22 28 28 29 31 32 34 37 40 42 44 43 50 49 47 48 52 48 38 31 34 38 31 47 57 51 52 49 45 35 27 26 26 25 28 30 29 29 31 30 33
32 28 33 27 28 30 25 26 19 30 27 29 28 27 34 36 37 45 44 41 44 47 46 44 47 49 41 33 32 31 18 55 66 66 59 54 50 40 34 30 29 33 32 33 34 32 31 33 36
41 41 38 42 30 24 28 28 21 24 31 31 26 32 34 36 35 39 44 42 42 41 40 43 42 43 40 32 38 29 58 54 56 60 61 57 55 41 39 36 30 33 35 36 31 28 34 30 31
49 46 43 32 22 23 27 27 24 22 26 32 33 35 34 35 33 37 41 41 43 42 45 42 38 39 41 44 52 56 58 57 55 56 54 54 50 45 44 35 30 32 33 34 33 31 31 31 33
51 44 45 36 28 18 25 33 30 28 25 27 40 40 36 35 37 37 39 43 42 42 43 44 39 36 36 43 54 47 61 53 53 53 55 57 55 47 37 22 18 25 28 32 33 32 30 31 33
57 48 49 46 48 47 38 39 38 33 22 32 42 46 42 35 36 39 38 40 45 45 42 42 39 36 30 34 43 38 63 66 56 56 54 57 57 46 29 29 26 24 26 28 29 30 30 28 32
50 50 49 47 48 47 14 14 39 15 25 24 44 50 48 44 36 38 44 39 42 44 43 41 37 37 29 26 32 41 50 68 44 47 59 59 48 51 36 33 31 25 24 29 31 33 34 33 32
55 47 49 45 45 38 10 24 19 21 17 21 42 43 46 48 40 39 39 39 37 41 42 39 38 35 31 28 24 32 41 45 53 45 34 37 51 55 48 41 35 30 26 24 24 30 36 35 36
33 37 44 44 39 7 35 38 9 3 9 22 42 45 37 40 42 40 37 41 37 36 40 38 37 36 31 31 29 29 29 37 18 37 27 29 38 53 61 43 39 31 18 27 31 31 33 34 38
33 27 27 36 30 41 55 37 42 9 12 22 31 40 33 37 37 41 45 39 39 34 32 38 38 35 33 34 29 26 28 31 19 19 11 24 31 36 58 57 54 52 18 23 30 34 33 31 33
32 34 27 30 38 50 42 47 56 19 16 14 20 26 31 29 36 40 44 40 34 35 34 34 35 33 32 32 30 26 25 29 33 37 26 34 11 43 64 64 64 39 28 17 25 30 34 31 29
16 24 27 33 38 42 44 55 38 12 14 16 11 11 20 27 36 35 43 45 33 34 32 30 31 31 29 26 27 28 32 32 31 33 41 41 48 61 63 63 40 50 22 9 18 21 23 27 30
24 31 33 29 30 37 40 40 23 17 16 18 24 19 10 21 28 30 42 42 32 27 27 31 35 32 24 27 25 25 31 32 36 44 52 55 65 26 5 8 9 18 5 8 15 18 16 12 15
18 11 24 28 34 32 33 35 47 29 28 24 28 25 18 11 25 37 42 36 25 24 26 30 27 30 30 25 23 25 27 33 37 40 42 47 54 17 26 14 16 18 9 5 6 7 8 7 9
Wind_Direction
102 110 165 292 7 352 349 33 24 39 38 90 64 66 77 75 76 63 91 111 114 115 108 101 94 67 171 68 67 72 65 59 58 67 72 66 75 58 56 101 131 137 133 124 118 108 106 91 86
105 112 90 112 284 3 337 31 9 33 70 69 53 57 42 57 51 74 95 115 117 115 103 106 102 76 216 85 77 65 65 58 65 75 57 59 49 52 56 101 143 135 122 109 109 114 109 96 79
92 130 20 11 6 342 12 18 21 53 91 65 57 35 39 59 63 97 98 115 116 112 102 99 104 200 214 76 67 65 53 52 64 58 52 45 35 52 63 355 164 126 106 105 107 114 117 104 97
19 11 18 53 332 318 312 23 40 46 56 54 60 28 17 77 86 94 110 115 115 112 109 102 86 188 229 54 73 61 62 52 59 55 56 41 30 41 38 57 103 117 115 113 118 120 115 105 94
20 32 28 323 15 296 201 129 55 48 41 58 51 38 36 76 67 99 111 116 117 110 111 125 83 237 53 85 75 43 44 42 51 64 55 44 28 37 64 109 110 113 124 135 137 133 126 122 119
21 38 20 6 59 137 93 100 31 55 64 56 43 45 50 82 91 106 110 117 118 118 112 103 98 71 66 72 76 45 34 33 43 71 66 53 49 68 75 101 112 115 140 145 146 131 123 116 112
49 33 41 23 2 17 88 303 47 66 65 50 68 46 68 91 104 108 107 108 116 113 108 99 101 94 78 79 56 58 59 23 46 73 73 63 56 85 84 100 121 129 147 157 151 135 115 102 118
34 28 23 62 22 22 78 151 68 42 21 73 69 37 88 108 111 107 105 109 112 112 112 118 111 91 73 360 50 45 91 258 48 72 90 72 95 85 84 105 136 139 149 150 142 132 93 106 111
27 18 22 26 47 68 131 36 25 49 31 33 86 66 98 95 92 100 98 102 113 124 123 127 123 107 92 295 293 70 69 29 14 113 82 63 202 59 100 111 143 152 152 151 140 123 127 103 133
63 34 53 89 105 106 105 83 80 68 50 12 35 75 95 91 100 116 122 125 126 139 131 172 142 128 76 329 265 309 332 335 275 236 226 63 197 170 128 123 137 161 162 149 145 158 112 114 134
79 9 111 99 117 128 113 86 90 75 80 73 74 98 102 98 109 119 130 137 145 151 159 177 179 282 74 23 294 264 253 321 274 233 204 198 201 219 179 138 126 158 161 148 155 159 154 144 107
61 86 131 88 120 105 119 104 82 100 147 93 98 111 109 112 121 131 144 144 150 162 174 161 161 129 327 100 273 293 285 267 259 227 209 205 204 212 187 151 133 138 153 136 149 156 187 198 162
62 96 103 88 87 116 67 70 74 121 72 94 103 109 116 119 128 130 136 140 150 160 163 163 167 146 138 119 150 172 193 242 268 233 216 228 305 221 206 182 154 117 150 166 157 152 163 211 202
205 133 81 122 38 89 89 82 108 135 92 99 112 120 124 128 133 131 135 140 152 157 161 167 166 168 158 160 164 174 178 180 206 240 222 219 227 228 224 207 164 141 154 159 145 135 141 342 188
258 119 81 173 80 90 82 120 125 109 113 107 119 124 127 132 137 143 137 144 146 155 159 165 163 144 156 161 162 172 178 169 218 239 232 228 244 233 246 279 69 210 118 178 161 176 94 111 161
244 79 138 127 281 150 89 151 130 120 125 120 117 124 126 138 143 143 144 145 150 146 155 162 159 154 154 152 146 163 165 167 210 234 236 235 246 249 277 279 303 318 286 281 256 62 76 112 114
289 218 211 213 174 129 124 148 143 132 124 130 129 128 131 134 143 146 147 146 152 152 151 156 162 158 149 143 144 152 148 174 235 242 234 235 238 255 269 271 281 300 291 266 303 295 93 111 80
176 219 260 173 153 154 158 190 172 153 139 147 134 124 138 139 143 149 146 142 145 149 151 150 155 157 147 139 143 151 271 198 234 230 227 233 233 249 258 263 277 276 291 274 270 327 282 53 317
228 241 242 247 188 149 179 192 178 132 157 157 137 147 148 150 144 143 148 143 145 145 144 148 148 151 146 140 150 146 208 200 193 221 219 226 226 250 250 255 277 272 278 265 308 348 290 349 295
235 242 252 257 206 153 185 200 187 145 170 169 160 157 154 150 146 149 149 144 149 148 154 152 148 148 153 155 169 196 176 193 196 206 225 229 236 246 245 263 282 289 281 270 279 324 322 310 322
235 225 244 237 218 154 192 226 217 204 186 172 171 167 156 151 157 155 152 153 148 151 153 157 154 150 149 156 171 233 196 216 212 219 218 215 226 240 257 292 315 313 299 291 306 315 331 323 338
239 232 249 253 290 270 303 244 236 219 184 178 175 171 166 158 159 157 153 154 159 159 154 153 150 151 147 149 159 155 179 197 224 218 218 223 219 243 271 276 290 309 306 306 309 322 323 341 333
223 229 289 300 305 320 259 259 240 163 185 167 175 175 174 169 157 156 163 159 160 158 157 156 150 151 147 148 154 162 169 203 248 244 219 214 247 243 268 275 281 301 318 308 299 298 307 324 329
270 287 293 309 315 309 250 19 194 28 182 164 175 171 174 173 165 163 163 158 157 158 159 154 154 151 150 151 151 160 167 170 246 253 263 263 248 248 256 267 279 292 309 317 320 312 305 315 316
304 303 297 307 312 342 343 344 251 344 21 154 170 176 169 169 168 164 156 160 157 157 160 158 155 155 149 153 155 162 168 170 186 258 262 267 269 248 238 269 276 295 324 307 303 309 313 315 311
311 305 308 314 318 310 319 333 339 343 159 146 157 170 166 168 170 169 169 161 162 160 158 160 159 158 154 156 155 155 163 169 179 177 233 269 270 269 242 246 257 262 321 316 307 306 311 319 324
305 298 309 310 311 308 320 323 323 4 28 87 136 156 171 170 173 174 172 169 165 164 163 161 159 156 156 156 153 151 156 164 168 169 166 173 214 265 234 231 240 282 298 311 313 310 307 316 326
312 344 304 309 309 308 313 317 329 37 60 47 96 118 175 173 174 172 172 173 169 168 167 163 162 158 154 151 154 153 157 160 163 167 173 174 181 204 223 239 257 268 298 305 316 323 326 319 319
298 307 312 304 310 311 314 323 360 16 1 356 339 347 46 157 170 171 172 174 171 167 167 168 165 161 154 152 151 152 158 162 165 174 182 185 220 200 248 171 189 301 311 302 311 314 325 330 329
286 287 310 306 304 303 304 312 314 313 317 348 349 3 31 107 145 158 166 166 166 171 170 173 171 167 164 155 150 155 156 164 170 174 177 184 191 245 181 286 291 297 298 236 266 242 286 243 289